Location: Crescent
(42.8242°N, 73.7329°W)
Time: 16:25:25
(UTC+00:00)

Courier 1B - Pass Details

Date: 21 February 2026
Orbit: 962 x 1208 km, 28.3° (Epoch: 8 March)

Event Time Altitude Azimuth Distance (km) Brightness Sun altitude
Rises 02:11:50 0° 250° (WSW) 3,927 11.1 -39.9°
Reaches altitude 10° 02:15:05 10° 238° (WSW) 3,009 10.3 -40.5°
Enters shadow 02:16:46 16° 228° (SW) 2,611 9.8 -40.7°
